GW1539 Weather Reports


time (UTC)temp
C
wind
direction
speed
KPH
gust
KPH
rain 1hr
cm
rain 24hr
cm
rain mn
cm
humidity
%
barometer
mb
20260502200111 7 249 0.0 0.0 0.00 0.00 0.00 79 1022.4
20260502194622 8 249 0.0 0.0 0.00 0.00 0.00 77 1022.3
20260502191618 9 249 0.0 0.0 0.00 0.00 0.00 74 1022.2
20260502184607 10 249 0.0 3.2 0.00 0.00 0.00 71 1022.1
20260502181614 11 249 0.0 0.0 0.00 0.00 0.00 67 1022.1
20260502161617 18 235 1.6 3.2 0.00 0.00 0.00 43 1022.1
20260502160116 17 237 3.2 11.3 0.00 0.00 0.00 41 1022.4
20260502150120 18 255 0.0 8.0 0.00 0.00 0.00 43 1022.5
20260502121616 18 240 1.6 14.5 0.00 0.00 0.00 44 1024.2
20260502114617 17 278 9.7 20.9 0.00 0.00 0.00 44 1024.6
20260502111617 17 251 1.6 12.9 0.00 0.00 0.00 48 1024.9
20260502110119 16 238 1.6 12.9 0.00 0.00 0.00 48 1025.0
20260502103119 16 244 3.2 11.3 0.00 0.00 0.00 49 1025.6
20260502101614 16 276 1.6 12.9 0.00 0.00 0.00 47 1025.9
20260502064613 8 259 0.0 0.0 0.00 0.00 0.00 68 1027.0
20260502061613 5 259 0.0 0.0 0.00 0.00 0.00 84 1027.0
20260502054621 3 259 0.0 0.0 0.00 0.00 0.00 90 1027.2
20260502053114 2 259 0.0 0.0 0.00 0.00 0.00 91 1027.2
20260502050117 1 259 0.0 0.0 0.00 0.00 0.00 91 1027.1
20260502043114 1 259 0.0 0.0 0.00 0.00 0.00 90 1027.1
20260502041611 1 259 0.0 0.0 0.00 0.00 0.00 90 1027.0
20260502034615 1 259 0.0 0.0 0.00 0.00 0.00 89 1026.9
20260502031616 1 259 0.0 0.0 0.00 0.00 0.00 89 1026.8
20260502024617 1 259 0.0 0.0 0.00 0.00 0.00 89 1026.9
20260502021614 1 259 0.0 0.0 0.00 0.00 0.00 88 1027.1
20260502020113 1 259 0.0 0.0 0.00 0.00 0.00 88 1027.0
20260502014610 2 259 0.0 1.6 0.00 0.00 0.00 89 1027.0
20260502011618 2 259 0.0 0.0 0.00 0.00 0.00 88 1027.0
20260502004615 2 259 0.0 0.0 0.00 0.00 0.00 86 1027.2
20260502003113 2 259 0.0 0.0 0.00 0.00 0.00 86 1027.1
20260502000124 2 259 0.0 0.0 0.00 0.00 0.00 84 1027.1
20260501234609 2 259 0.0 1.6 0.00 0.00 0.00 84 1027.3
20260501231612 2 259 0.0 0.0 0.00 0.00 0.00 84 1027.2
20260501224613 3 259 0.0 0.0 0.00 0.00 0.00 83 1027.2
20260501223111 3 259 0.0 0.0 0.00 0.00 0.00 83 1027.0
20260501220142 3 259 0.0 0.0 0.00 0.00 0.00 81 1026.8
20260501214614 3 259 0.0 0.0 0.00 0.00 0.00 80 1026.8
20260501211614 3 259 0.0 0.0 0.00 0.00 0.00 78 1026.6
20260501210107 4 259 0.0 0.0 0.00 0.00 0.00 77 1026.6
20260501204606 5 259 0.0 0.0 0.00 0.00 0.00 77 1026.6
20260501201609 5 259 0.0 0.0 0.00 0.00 0.00 74 1026.6